DW9699 Haslev DK current weather conditions

sailwx.info

Wind from 208

Air temperature 6.7° C
Dewpoint -15.3° C

Last reported at 2019-Mar-17 08:11 UTC.
Time now 2019-Mar-18 15:35 UTC

Location: N 55°22' E 011°58'.
View on Google Maps.

See reports from other nearby stations

  
Tides and Currents Weather Stations Pressure Air Temp Water Temp Dewpoint Dewpoint Depression Visibility Wind Speed Wind Dir Waves Ship Positions
date/time (UTC)wind fromknots sea level pressurealtimeterstation pressurevisibilityair tempwater tempwave heightnotes
2019-Mar-17 08:11 208 6.7
2019-Mar-17 07:51 208 6.7
2019-Mar-17 07:46 207 6.7
2019-Mar-17 07:41 206 6.7
2019-Mar-17 07:36 208 6.7
2019-Mar-17 07:21 214 7.2
2019-Mar-17 07:16 214 7.2
2019-Mar-17 07:01 242 8.3
2019-Mar-17 06:56 230 8.3
2019-Mar-17 06:51 215 8.3
2019-Mar-17 06:46 212 1 gusting 19 8.3
2019-Mar-17 06:41 213 8.3
2019-Mar-17 06:36 219 2 gusting 22 8.3
2019-Mar-17 06:26 212 8.3
2019-Mar-17 06:21 224 8.3
2019-Mar-17 06:06 268 7.8
2019-Mar-17 06:01 236 7.8
2019-Mar-17 05:56 227 7.8
2019-Mar-17 05:51 223 7.8
2019-Mar-17 05:41 214 7.8
2019-Mar-17 05:36 216 7.8
2019-Mar-17 05:31 215 0 gusting 19 7.8
2019-Mar-17 05:26 224 7.8
2019-Mar-17 05:21 204 7.8
2019-Mar-17 05:16 216 7.8
2019-Mar-17 05:06 190 1 gusting 19 8.3
2019-Mar-17 04:56 188 8.3
2019-Mar-17 04:51 189 1 gusting 19 8.3
2019-Mar-17 04:46 199 8.3
2019-Mar-17 04:36 202 8.3
2019-Mar-17 04:31 206 8.3
2019-Mar-17 04:26 198 1 gusting 19 8.3
2019-Mar-17 04:21 197 8.3
2019-Mar-17 04:16 207 8.3
2019-Mar-17 04:06 207 0 gusting 21 8.3
2019-Mar-17 04:01 210 7.8
2019-Mar-17 03:51 217 7.8
2019-Mar-17 03:46 216 7.8
2019-Mar-17 03:41 217 7.8
2019-Mar-17 03:36 218 7.8
2019-Mar-17 03:31 219 7.8
2019-Mar-17 03:21 251 7.8
2019-Mar-17 03:11 259 7.8
2019-Mar-17 03:06 260 7.8
2019-Mar-17 03:01 259 7.8
2019-Mar-17 02:56 253 7.8
2019-Mar-17 02:36 242 7.8
2019-Mar-17 02:16 288 1 gusting 21 7.8
2019-Mar-17 02:11 271 7.8
2019-Mar-17 01:56 214 7.2
2019-Mar-17 01:51 200 7.8
2019-Mar-17 01:41 188 7.8
2019-Mar-17 01:31 184 1 gusting 24 7.2
2019-Mar-17 01:16 171 7.2
2019-Mar-17 01:11 164 7.2
2019-Mar-17 00:56 148 7.2
2019-Mar-17 00:51 153 7.2
2019-Mar-17 00:41 160 7.2
2019-Mar-17 00:36 161 1 gusting 24 7.2
2019-Mar-17 00:31 161 0 gusting 24 7.2
2019-Mar-17 00:26 190 1.1
2019-Mar-17 00:21 166 7.2
2019-Mar-17 00:16 159 1.1
2019-Mar-17 00:11 163 0 gusting 23 7.2
2019-Mar-16 23:41 212 4 gusting 23 7.2
2019-Mar-16 23:31 223 7.2
2019-Mar-16 23:26 194 2 gusting 23 7.2
2019-Mar-16 23:21 196 1 gusting 18 7.2
2019-Mar-16 23:11 210 4 gusting 19 7.8
2019-Mar-16 23:01 230 7.2
2019-Mar-16 22:56 234 7.2
2019-Mar-16 22:51 243 7 gusting 21 7.8
2019-Mar-16 22:46 244 7 gusting 21 7.8
2019-Mar-16 22:36 240 6 gusting 21 7.8
2019-Mar-16 22:26 198 0 gusting 14 7.8
2019-Mar-16 22:21 190 0 gusting 17 7.8
2019-Mar-16 22:06 203 7.8
2019-Mar-16 22:01 205 7.8
2019-Mar-16 21:56 200 8 gusting 19 7.8
2019-Mar-16 21:51 201 9 gusting 21 7.8
2019-Mar-16 21:46 195 9 gusting 21 7.8
2019-Mar-16 21:41 185 9 gusting 21 7.2
2019-Mar-16 21:21 171 0 gusting 17 7.2
2019-Mar-16 21:11 155 6.7
2019-Mar-16 21:01 154 6.7
2019-Mar-16 20:51 157 6.1
2019-Mar-16 20:41 162 6.1
2019-Mar-16 20:31 165 4 gusting 16 5.6
2019-Mar-16 20:26 152 6 gusting 13 5.6
2019-Mar-16 20:21 163 6 gusting 13 5.0
2019-Mar-16 20:16 170 3 gusting 16 5.0
2019-Mar-16 20:01 170 3 gusting 16 4.4
2019-Mar-16 19:56 173 6 gusting 16 4.4
2019-Mar-16 19:51 177 6 gusting 16 4.4
2019-Mar-16 19:41 188 7 gusting 16 4.4
2019-Mar-16 19:31 191 5 gusting 16 4.4
2019-Mar-16 19:21 192 7 gusting 13 4.4
2019-Mar-16 19:16 193 6 gusting 16 3.9
2019-Mar-16 19:01 203 9 gusting 14 3.9
2019-Mar-16 18:56 209 5 gusting 13 3.9
2019-Mar-16 18:51 217 5 gusting 13 3.9
2019-Mar-16 18:41 235 5 gusting 13 3.3
2019-Mar-16 18:36 236 6 gusting 13 3.3
2019-Mar-16 18:31 239 8 gusting 13 3.3
2019-Mar-16 18:26 226 6 gusting 13 3.3
2019-Mar-16 18:11 269 3.3
2019-Mar-16 18:06 268 3.3
2019-Mar-16 17:56 270 3.3
2019-Mar-16 17:51 270 3.3
2019-Mar-16 17:41 270 3.3
2019-Mar-16 17:31 278 1 gusting 12 3.9
2019-Mar-16 17:26 270 3.9
2019-Mar-16 17:21 270 3.9
2019-Mar-16 17:16 253 3.9
2019-Mar-16 17:11 240 3.9
2019-Mar-16 17:01 239 3.9
2019-Mar-16 16:51 241 3.9
2019-Mar-16 16:46 240 3.9
2019-Mar-16 16:41 240 3.9
2019-Mar-16 16:26 251 4.4
2019-Mar-16 16:21 239 4.4
2019-Mar-16 16:11 237 4.4
2019-Mar-16 16:06 237 4.4
2019-Mar-16 16:01 241 4.4
2019-Mar-16 15:56 240 5.0
2019-Mar-16 15:51 237 5.0
2019-Mar-16 15:46 238 5.0
2019-Mar-16 15:36 246 5.0
2019-Mar-16 15:11 257 5.6
2019-Mar-16 15:06 257 5.6
2019-Mar-16 15:01 266 5.6